Wetbulb
55.66 55.86 55.56 55.31 55.60 55.86 56.13 56.03 55.39 55.19 55.45 55.75 56.04 56.22 56.42 54.70 55.48 47.82 43.73 49.42 52.19 56.45 57.12 49.73 46.89 46.38 45.06 43.39 47.71 48.65 40.10 35.75 38.38 38.91 40.59 41.56 40.23 43.67 44.25 42.79 42.70 46.33 48.94 44.68 46.09
55.54 55.64 55.37 54.99 55.19 55.47 55.84 55.68 55.04 55.08 55.29 55.43 55.80 56.14 56.15 53.61 49.29 44.46 53.05 55.30 55.95 57.16 49.56 45.12 44.30 44.49 39.89 43.08 44.19 41.59 35.02 36.36 39.94 37.85 37.06 38.75 37.84 37.87 37.70 36.86 37.22 40.17 42.83 44.48 44.85
55.28 55.31 55.19 54.66 54.91 55.29 55.59 55.14 54.62 54.93 55.28 55.28 55.55 56.01 56.15 51.20 44.60 42.34 55.24 55.34 57.38 57.70 49.67 46.75 46.91 45.50 39.63 41.76 40.79 39.68 36.36 38.75 38.42 39.38 38.42 37.43 36.24 38.01 35.44 33.42 36.13 37.09 39.13 41.79 42.33
55.01 55.16 54.97 54.43 54.68 55.23 55.41 54.61 54.47 54.84 55.12 55.24 55.47 55.82 56.37 45.45 33.23 43.95 56.25 55.40 58.15 52.24 48.25 45.01 43.22 39.79 37.94 36.60 39.44 33.29 38.59 37.63 39.69 40.17 38.26 35.72 36.93 34.63 35.50 35.89 39.79 39.13 39.98 40.28 41.00
54.54 54.96 54.91 54.51 54.43 55.06 55.12 54.43 54.43 54.65 54.89 55.11 55.36 56.14 46.09 38.74 38.70 47.33 54.18 52.01 49.80 48.84 45.99 44.29 41.21 39.34 34.84 35.64 36.40 33.98 35.55 38.46 38.92 38.68 37.58 38.29 35.00 34.52 35.46 38.99 39.47 40.09 41.59 39.84 40.28
54.66 54.94 54.74 54.43 54.15 54.84 54.86 54.05 54.24 54.39 54.46 54.32 54.78 55.00 43.02 33.67 45.99 47.50 47.77 48.09 47.13 46.42 44.59 44.37 41.39 41.97 37.97 36.12 34.04 35.57 36.76 36.11 37.73 36.36 36.98 35.36 33.88 34.67 35.39 37.40 38.45 39.81 39.47 39.89 40.17
54.93 54.73 54.63 54.52 54.00 54.57 54.66 53.89 53.99 54.00 53.79 53.58 53.70 48.66 40.12 37.13 44.75 46.45 47.34 45.85 46.40 46.12 43.56 44.92 44.53 40.89 39.49 35.58 37.88 36.89 32.81 34.04 34.73 35.48 34.72 34.70 31.92 32.29 34.95 38.26 37.79 38.68 37.86 38.58 39.30
55.20 54.96 54.71 54.50 53.80 54.38 54.29 53.74 53.48 53.54 53.68 53.25 53.68 43.45 36.28 44.98 42.92 45.70 46.40 46.09 47.07 46.48 45.40 45.97 45.38 41.82 38.69 38.56 37.31 32.68 31.31 25.55 32.67 34.57 35.55 33.97 25.76 34.52 36.28 35.82 36.19 37.31 37.51 38.05 39.51
55.49 55.26 54.78 54.31 53.89 54.21 53.45 53.75 53.72 53.19 53.67 53.45 42.89 38.39 34.76 48.15 43.01 44.75 45.06 43.21 44.74 45.37 44.53 45.84 43.08 38.15 36.28 30.42 28.00 27.49 21.66 23.67 28.59 35.75 34.61 31.82 28.11 34.64 36.71 36.50 35.32 36.03 37.00 37.77 38.75
55.71 55.33 54.80 53.75 53.79 54.02 53.53 53.42 53.09 49.94 50.58 47.43 43.00 37.00 39.95 38.06 42.59 44.05 44.64 45.18 42.30 41.31 41.79 40.09 36.65 30.22 28.28 25.62 20.71 22.37 22.03 25.78 24.66 30.81 31.04 28.50 28.81 33.44 35.72 35.15 34.30 34.74 37.03 37.64 39.41
55.71 55.43 54.66 53.36 53.30 52.71 49.81 46.27 42.14 40.69 39.56 35.82 37.23 38.20 39.72 42.17 44.32 42.12 43.42 42.57 42.13 38.01 30.66 34.48 27.81 24.25 25.63 28.21 29.98 27.70 24.85 23.05 27.22 31.67 29.06 26.29 28.34 31.51 35.77 34.60 34.30 34.52 35.19 37.25 39.58
55.62 55.21 54.32 53.08 52.82 52.02 48.83 42.26 41.62 42.95 35.99 39.54 40.02 40.03 41.27 41.69 37.83 39.97 43.68 37.37 35.60 29.61 33.14 30.27 24.87 30.51 33.51 32.83 30.22 26.92 23.62 22.58 27.39 31.03 30.55 28.35 28.93 33.05 35.24 34.44 35.18 35.85 35.38 37.26 39.86
55.39 54.79 53.51 52.65 52.10 46.72 43.96 43.52 47.69 45.35 36.54 36.55 38.78 38.86 38.74 40.67 36.15 35.81 39.32 36.85 32.55 30.02 29.48 27.54 29.84 33.47 31.64 29.38 27.29 24.65 23.80 23.16 23.64 28.09 30.68 28.36 25.12 30.27 34.62 35.07 37.39 37.31 37.55 38.82 38.91
55.30 54.36 53.01 52.40 47.08 42.39 41.80 46.86 47.27 45.14 30.51 33.49 35.17 38.17 40.34 39.67 35.40 40.69 40.25 36.99 33.36 28.85 29.11 28.33 31.87 30.40 27.88 28.10 27.50 22.62 28.71 27.00 25.92 24.52 17.44 28.08 15.36 25.86 31.13 32.51 34.16 35.38 35.12 35.42 37.22
54.87 53.71 52.18 50.75 42.88 42.08 44.04 46.38 44.90 42.10 20.59 34.52 35.25 42.01 39.61 35.87 34.85 36.72 40.14 37.24 29.20 29.79 29.17 25.62 26.83 26.12 27.52 27.87 29.46 24.77 29.08 26.50 26.26 23.81 22.31 23.64 16.44 24.25 30.80 29.94 30.73 32.05 34.74 35.41 36.13
54.53 52.07 50.88 48.43 45.42 44.86 46.68 45.77 42.40 30.39 20.79 28.41 34.50 34.13 33.51 34.96 34.53 36.40 36.32 37.32 34.54 30.03 28.65 27.09 30.37 29.32 28.28 30.34 29.90 31.21 28.36 28.55 27.12 24.41 9.24 22.54 21.46 21.20 25.50 29.89 30.92 33.06 33.73 34.41 33.98
54.08 50.70 47.32 46.62 43.04 46.00 45.58 42.39 31.68 23.57 31.64 27.82 27.63 32.69 30.33 29.09 31.78 32.31 30.89 27.28 24.48 21.93 22.00 24.79 25.87 28.98 30.55 24.93 29.27 28.79 20.39 4.84 7.27 8.78 9.31 24.82 21.07 23.87 29.96 31.58 32.90 31.41 32.57 32.28 33.74
51.97 48.92 45.47 44.67 45.33 44.98 43.17 34.24 23.55 28.23 30.00 30.80 29.78 29.96 26.66 28.06 28.62 29.65 27.94 25.09 27.53 23.80 18.95 17.28 16.35 26.05 29.31 24.76 22.58 26.14 20.19 6.15 3.55 3.67 10.85 22.45 15.03 24.50 32.63 34.45 33.22 33.07 32.81 33.68 34.24
49.30 44.89 43.06 42.95 44.45 42.36 37.43 26.91 28.27 32.01 31.87 28.76 27.91 22.74 22.83 26.62 26.50 26.57 25.15 25.73 26.57 25.57 20.06 17.68 20.91 26.34 28.78 28.62 28.45 23.87 15.67 25.18 6.61 8.76 9.83 17.04 23.33 30.20 33.20 31.53 31.96 31.39 31.91 32.04 33.34
43.97 42.52 40.90 43.26 43.50 41.00 32.35 29.74 31.22 33.71 32.79 32.42 25.83 25.04 20.67 21.24 24.08 24.48 24.39 28.71 27.34 29.39 27.97 22.81 16.14 24.68 26.50 28.48 30.13 26.34 28.58 14.67 8.93 -0.42 -1.82 11.45 17.90 20.86 26.94 28.69 30.11 28.42 30.00 31.72 32.48
43.74 39.23 40.96 43.14 42.27 36.33 29.69 29.71 32.39 33.40 34.75 30.95 28.53 23.17 25.84 22.04 24.72 21.88 23.99 28.14 30.13 28.43 28.22 24.89 20.92 21.12 24.17 21.64 23.00 18.89 15.82 14.98 17.28 15.18 3.36 2.51 13.21 25.32 27.11 27.86 25.32 27.76 30.85 31.13 31.19
41.73 33.53 40.95 41.13 33.11 31.81 28.84 31.75 34.31 31.16 34.39 32.49 30.55 29.57 27.12 25.67 21.47 24.20 24.92 26.74 32.08 29.88 23.06 26.54 22.20 15.22 20.31 24.52 26.55 25.48 23.77 19.00 7.16 8.30 15.51 11.79 14.93 30.00 29.08 29.75 28.16 28.44 30.95 31.52 31.85
38.10 33.27 40.95 40.58 29.08 27.65 29.70 29.84 32.14 30.70 31.00 30.75 29.14 30.34 29.88 27.31 22.65 24.63 25.49 30.54 31.73 28.92 24.70 25.87 15.85 8.53 16.84 21.21 24.66 21.41 24.01 25.47 12.52 9.90 10.49 2.96 12.72 30.63 29.89 29.48 28.53 28.16 31.33 31.10 30.93
35.99 29.07 32.39 34.59 33.49 32.09 29.05 28.93 28.50 34.46 33.19 33.69 30.16 30.29 27.74 25.03 25.69 21.57 25.38 28.52 30.74 29.69 33.10 30.23 19.64 14.11 16.02 20.42 20.48 20.10 22.27 24.44 14.84 3.84 3.92 12.17 12.91 24.96 26.39 22.82 25.15 26.40 31.92 29.41 29.66
38.56 33.24 31.95 25.93 27.88 32.24 33.62 32.69 29.44 28.97 32.30 32.69 30.03 28.74 27.66 21.81 22.25 18.74 25.21 26.09 29.01 32.64 27.88 25.93 12.64 14.81 17.36 20.78 19.88 20.27 19.84 21.17 18.50 13.59 10.52 13.74 13.28 21.15 23.70 22.73 24.05 23.25 26.99 28.81 28.47
37.62 32.74 32.94 27.04 30.45 31.91 32.99 31.58 30.27 29.63 29.85 29.07 28.76 29.77 29.80 25.04 27.20 23.82 23.45 24.62 24.07 27.50 25.46 26.34 13.72 19.91 13.54 20.30 20.62 18.70 20.75 20.47 20.97 20.03 18.48 20.90 20.19 28.42 29.49 27.02 21.12 22.38 24.35 27.65 27.24
42.33 38.92 38.26 34.14 30.99 31.19 32.42 31.56 31.34 32.05 31.61 33.49 31.54 30.41 27.90 29.90 30.59 29.13 28.62 28.20 27.46 25.22 22.67 22.58 16.99 8.58 9.93 18.25 18.35 12.52 18.19 20.23 16.82 16.52 18.16 11.38 19.69 21.14 18.88 20.73 22.76 18.95 27.19 27.37 26.62
MSLP
1020.00 1019.81 1019.62 1019.33 1018.90 1018.61 1018.20 1017.96 1017.55 1017.37 1017.06 1016.62 1016.32 1015.99 1015.74 1015.30 1014.84 1014.75 1015.08 1015.46 1015.01 1014.40 1013.99 1013.45 1013.06 1012.88 1012.81 1012.76 1012.52 1012.46 1013.54 1013.79 1013.55 1013.51 1013.49 1013.27 1013.07 1012.50 1012.12 1011.97 1011.76 1011.38 1011.44 1011.92 1011.79
1020.08 1019.88 1019.68 1019.48 1018.98 1018.56 1018.22 1017.85 1017.43 1017.27 1016.98 1016.55 1016.23 1016.07 1015.76 1015.37 1015.05 1015.34 1015.50 1014.90 1014.45 1014.16 1013.91 1013.50 1013.05 1012.86 1012.93 1012.84 1012.92 1013.22 1013.75 1013.73 1013.77 1013.86 1013.99 1014.01 1013.96 1013.58 1013.08 1012.72 1012.07 1011.68 1011.46 1011.70 1011.59
1020.22 1019.91 1019.72 1019.44 1019.01 1018.57 1018.16 1017.68 1017.38 1017.14 1016.78 1016.48 1016.16 1016.03 1015.74 1015.50 1015.33 1015.60 1015.12 1014.68 1014.12 1013.69 1013.69 1013.34 1013.10 1012.92 1013.07 1013.16 1013.36 1013.54 1013.82 1013.81 1014.05 1014.12 1014.40 1014.39 1014.25 1014.14 1013.88 1013.32 1012.61 1012.29 1011.91 1011.42 1011.46
1020.15 1019.96 1019.72 1019.35 1018.99 1018.54 1018.07 1017.62 1017.26 1016.97 1016.58 1016.28 1016.08 1015.96 1015.62 1015.56 1016.02 1015.49 1015.09 1014.66 1013.98 1013.43 1013.18 1013.26 1013.22 1013.17 1013.51 1013.74 1013.81 1013.98 1013.91 1013.94 1014.00 1014.09 1014.25 1014.43 1014.48 1014.33 1014.01 1013.37 1012.68 1012.36 1012.01 1012.00 1012.03
1020.05 1019.91 1019.67 1019.29 1018.91 1018.48 1018.00 1017.56 1017.16 1016.80 1016.40 1016.09 1015.91 1015.78 1015.54 1015.55 1015.98 1015.39 1015.12 1014.80 1014.15 1013.86 1013.80 1013.69 1013.70 1013.77 1013.86 1014.03 1014.15 1014.39 1014.47 1014.28 1014.08 1014.12 1014.27 1014.41 1014.63 1014.65 1013.79 1012.92 1012.56 1012.21 1012.00 1012.00 1012.00
1019.97 1019.76 1019.55 1019.20 1018.76 1018.31 1017.92 1017.42 1017.03 1016.59 1016.22 1015.99 1015.79 1015.60 1015.71 1015.83 1015.71 1015.39 1015.15 1014.94 1014.71 1014.58 1014.53 1014.32 1014.43 1014.27 1014.29 1014.50 1014.77 1014.91 1014.70 1014.44 1014.15 1014.15 1014.23 1014.50 1014.48 1014.67 1013.31 1013.00 1012.68 1012.20 1011.92 1011.63 1011.55
1019.87 1019.56 1019.40 1019.05 1018.63 1018.19 1017.75 1017.24 1016.89 1016.44 1016.07 1015.86 1015.63 1015.58 1015.55 1015.96 1015.69 1015.46 1015.18 1015.01 1014.95 1014.99 1014.91 1014.71 1014.64 1014.47 1014.74 1015.05 1015.31 1015.36 1015.37 1014.80 1014.66 1014.55 1014.76 1014.95 1014.49 1013.91 1013.13 1012.84 1012.71 1012.21 1011.83 1011.39 1011.23
1019.68 1019.43 1019.31 1018.91 1018.48 1018.01 1017.56 1016.99 1016.60 1016.24 1015.94 1015.70 1015.60 1015.45 1015.64 1015.52 1015.53 1015.49 1015.24 1014.98 1014.96 1014.94 1014.98 1014.76 1014.72 1014.88 1014.95 1015.37 1015.61 1015.82 1015.96 1016.05 1015.35 1015.05 1015.03 1015.20 1014.52 1013.14 1013.10 1012.99 1012.67 1012.34 1011.75 1011.37 1010.90
1019.48 1019.33 1019.14 1018.76 1018.25 1017.79 1017.29 1016.60 1016.19 1015.92 1015.71 1015.54 1015.56 1015.45 1015.67 1015.47 1015.61 1015.53 1015.37 1015.38 1015.25 1015.02 1014.90 1014.86 1014.99 1015.40 1015.69 1016.19 1016.68 1017.16 1017.31 1017.07 1016.62 1015.79 1015.70 1015.73 1014.48 1012.77 1013.03 1013.01 1012.62 1012.12 1011.48 1010.94 1010.76
1019.29 1019.10 1018.98 1018.55 1018.07 1017.51 1016.79 1016.02 1015.76 1015.70 1015.39 1015.47 1015.50 1015.91 1015.81 1016.05 1015.95 1015.77 1015.40 1015.34 1015.46 1015.35 1015.17 1015.23 1015.68 1016.53 1017.43 1017.52 1018.30 1018.46 1018.53 1018.05 1017.79 1017.06 1016.66 1016.36 1014.96 1013.58 1012.81 1012.78 1012.29 1011.93 1011.27 1010.83 1010.78
1019.13 1019.03 1018.76 1018.37 1017.96 1017.33 1016.85 1016.23 1016.37 1016.48 1016.18 1016.36 1016.40 1016.16 1016.24 1016.26 1015.88 1015.97 1015.65 1015.42 1015.44 1015.53 1015.91 1015.95 1017.14 1018.11 1018.38 1018.42 1018.53 1018.80 1018.95 1018.90 1017.90 1017.49 1017.14 1016.17 1015.11 1013.86 1012.07 1012.03 1011.79 1011.53 1011.27 1011.14 1011.07
1018.92 1018.83 1018.82 1018.37 1017.81 1017.28 1017.04 1017.53 1018.13 1018.41 1017.46 1016.70 1016.55 1016.43 1016.41 1016.49 1016.33 1016.10 1015.74 1015.75 1015.72 1016.14 1016.35 1017.06 1017.95 1018.32 1018.37 1018.45 1018.71 1018.89 1019.19 1019.25 1018.44 1017.83 1017.84 1016.47 1014.90 1013.43 1012.33 1011.46 1011.06 1011.07 1011.26 1011.35 1011.21
1018.82 1018.85 1018.61 1018.28 1017.85 1017.68 1017.94 1018.44 1018.33 1018.32 1017.97 1017.15 1016.80 1016.61 1016.69 1016.67 1016.70 1016.67 1016.53 1016.15 1016.33 1016.65 1017.24 1017.74 1018.43 1018.36 1018.48 1018.54 1018.85 1018.84 1019.19 1019.65 1019.81 1018.86 1017.70 1016.94 1015.24 1013.93 1012.34 1011.34 1011.15 1011.33 1011.64 1012.11 1012.41
1018.74 1018.78 1018.62 1018.24 1018.30 1018.26 1018.35 1018.43 1018.37 1018.45 1018.19 1017.54 1017.06 1016.87 1016.75 1016.56 1016.91 1016.93 1016.77 1016.57 1016.67 1017.27 1017.72 1018.38 1018.58 1018.64 1018.73 1018.97 1019.41 1019.48 1019.31 1019.87 1020.10 1019.87 1019.55 1018.36 1017.57 1014.79 1012.97 1012.03 1011.93 1012.15 1012.50 1012.79 1012.70
1018.66 1018.70 1018.73 1018.69 1018.77 1018.55 1018.79 1018.43 1018.33 1018.67 1018.38 1017.69 1017.13 1016.95 1016.78 1016.89 1017.41 1017.10 1017.02 1016.71 1017.17 1017.46 1017.99 1018.79 1018.85 1018.89 1018.95 1019.36 1019.87 1019.78 1019.64 1020.04 1020.67 1020.73 1020.22 1019.39 1019.33 1014.83 1013.50 1012.50 1012.18 1012.33 1012.61 1012.78 1012.91
1018.40 1018.68 1018.77 1018.64 1018.78 1018.81 1018.58 1018.39 1018.61 1018.87 1018.27 1017.65 1017.24 1017.16 1017.07 1016.88 1017.19 1017.25 1017.29 1017.23 1017.72 1017.94 1018.23 1018.85 1019.05 1019.21 1019.16 1019.30 1019.84 1020.26 1020.61 1020.43 1020.80 1021.50 1021.67 1019.96 1018.96 1015.61 1013.83 1012.56 1012.52 1012.71 1012.97 1013.02 1012.87
1018.06 1018.46 1019.08 1019.17 1019.43 1019.04 1018.68 1018.49 1019.11 1018.99 1018.47 1018.19 1017.76 1017.54 1017.56 1017.68 1017.52 1017.68 1017.93 1018.16 1018.64 1018.96 1019.25 1019.55 1019.57 1019.55 1019.59 1019.76 1019.97 1020.75 1021.82 1023.48 1023.43 1023.45 1022.45 1020.28 1018.81 1014.89 1013.06 1012.44 1012.73 1013.25 1013.24 1013.03 1013.00
1017.60 1018.26 1018.91 1019.16 1019.39 1019.28 1018.81 1019.26 1020.07 1018.53 1018.38 1018.26 1018.26 1018.30 1018.37 1018.47 1018.58 1018.26 1018.63 1019.19 1019.39 1019.39 1020.28 1020.64 1020.16 1019.92 1019.92 1020.57 1021.09 1021.86 1023.13 1025.37 1026.09 1025.76 1023.77 1021.05 1018.50 1013.98 1012.57 1012.44 1012.94 1013.12 1013.20 1013.12 1012.86
1017.60 1018.58 1019.32 1019.49 1018.99 1019.27 1019.31 1019.95 1019.11 1018.67 1018.61 1018.53 1018.97 1019.28 1019.48 1019.27 1019.35 1019.12 1019.12 1019.50 1019.74 1019.93 1020.59 1020.89 1020.53 1020.41 1020.37 1020.78 1021.49 1022.40 1023.46 1024.82 1026.39 1026.97 1025.63 1021.78 1017.61 1014.12 1012.65 1012.80 1012.97 1013.26 1013.45 1013.29 1013.12
1017.61 1018.85 1019.49 1019.27 1019.26 1019.48 1020.29 1020.12 1018.99 1018.37 1018.42 1018.64 1019.21 1019.59 1019.94 1020.07 1020.20 1019.80 1019.62 1019.65 1019.99 1020.01 1020.63 1021.00 1021.26 1020.86 1021.19 1021.41 1022.04 1022.69 1023.72 1025.42 1026.93 1027.84 1026.48 1022.46 1018.87 1015.37 1013.43 1013.46 1013.49 1013.82 1013.65 1013.34 1012.98
1017.78 1019.09 1019.50 1019.32 1019.54 1020.16 1020.68 1019.85 1019.28 1018.74 1018.55 1018.84 1019.09 1019.61 1020.07 1020.24 1020.48 1020.42 1020.03 1020.07 1020.11 1020.40 1020.80 1021.12 1021.47 1021.83 1021.67 1021.78 1021.92 1023.41 1024.14 1025.56 1026.47 1027.51 1027.29 1024.46 1018.29 1014.33 1013.52 1013.71 1013.98 1014.04 1013.76 1013.54 1013.23
1017.69 1018.68 1019.85 1019.39 1020.38 1020.31 1019.94 1019.26 1018.60 1019.00 1018.94 1018.79 1019.10 1019.44 1019.76 1020.20 1020.60 1020.70 1020.27 1020.15 1019.99 1020.72 1021.46 1021.61 1022.13 1022.52 1021.86 1021.62 1021.27 1022.28 1023.50 1024.85 1026.51 1027.32 1026.57 1025.06 1018.89 1013.66 1013.31 1013.42 1014.04 1013.96 1013.75 1013.86 1013.62
1017.43 1018.72 1019.66 1019.59 1019.65 1019.83 1019.32 1018.80 1018.76 1019.06 1018.91 1018.98 1019.10 1019.27 1019.81 1020.26 1020.82 1020.77 1020.47 1020.37 1020.40 1021.16 1021.50 1021.58 1022.48 1023.08 1022.69 1022.40 1021.95 1022.16 1022.89 1024.16 1025.57 1026.45 1026.25 1025.17 1018.31 1013.79 1013.40 1013.42 1013.77 1014.32 1014.24 1014.11 1013.77
1017.35 1018.58 1019.86 1019.51 1018.81 1018.51 1018.67 1018.73 1018.92 1018.65 1018.62 1018.92 1019.13 1019.33 1019.88 1020.43 1020.71 1020.89 1020.82 1020.84 1021.00 1021.48 1021.75 1021.82 1022.73 1023.15 1022.87 1022.03 1021.75 1022.22 1022.22 1023.30 1024.64 1026.39 1025.11 1021.99 1018.06 1014.53 1014.11 1014.56 1014.85 1014.76 1014.66 1014.62 1014.14
1015.83 1015.82 1015.85 1017.95 1018.16 1017.72 1017.64 1017.54 1018.07 1018.30 1018.56 1018.97 1019.17 1019.13 1019.57 1020.47 1020.94 1021.11 1021.13 1021.64 1021.81 1021.95 1022.30 1022.56 1023.65 1023.73 1022.70 1022.21 1021.96 1021.50 1021.74 1022.34 1023.04 1023.24 1023.23 1019.32 1018.65 1015.72 1015.28 1015.53 1015.53 1015.44 1015.35 1014.77 1014.28
1013.93 1014.62 1015.78 1015.93 1015.93 1016.92 1017.03 1016.61 1016.99 1017.81 1018.09 1018.82 1018.91 1018.58 1019.15 1019.67 1019.57 1020.33 1020.91 1021.41 1021.44 1022.48 1022.78 1023.06 1023.93 1024.44 1023.36 1022.06 1021.54 1020.63 1019.95 1020.57 1021.31 1021.74 1021.12 1019.35 1017.85 1015.37 1014.76 1015.17 1015.71 1016.04 1015.66 1015.11 1014.75
1012.75 1013.25 1013.34 1014.39 1014.91 1015.59 1015.05 1015.95 1016.31 1016.55 1017.46 1017.42 1017.92 1018.42 1018.75 1018.60 1019.43 1019.93 1020.17 1020.54 1021.20 1022.01 1022.89 1023.66 1024.54 1025.60 1024.83 1022.73 1021.39 1019.17 1016.54 1018.07 1018.74 1018.78 1018.65 1018.54 1015.75 1014.78 1014.90 1015.39 1015.72 1015.98 1015.81 1015.67 1015.42
Wind_Speed
14 16 16 16 15 15 15 15 15 15 14 14 15 14 14 11 9 6 8 6 8 15 15 8 3 4 1 2 3 3 3 2 3 2 1 5 5 4 4 2 2 4 4 4 1
14 15 16 16 15 15 15 15 16 16 14 13 14 14 13 9 1 7 8 12 13 12 7 7 2 2 2 2 2 4 3 1 4 1 3 4 4 7 6 7 5 6 2 3 4
14 14 16 16 15 15 15 15 16 16 15 13 12 14 13 7 2 3 14 15 16 14 5 3 4 2 3 3 2 3 2 1 2 3 2 3 5 6 6 5 5 6 7 9 5
13 14 15 16 16 15 15 16 16 16 14 13 12 13 11 2 2 4 11 15 15 11 2 2 3 3 5 3 1 2 2 3 4 3 5 5 6 7 6 8 8 9 8 3 6
12 13 15 16 16 16 16 16 16 15 13 12 12 11 5 5 2 5 9 10 7 7 9 3 6 3 4 4 1 1 2 5 4 3 4 5 5 6 13 15 10 8 3 5 7
12 12 15 16 17 16 16 16 16 14 12 10 10 10 0 5 3 7 7 5 7 6 8 7 3 2 3 3 2 2 4 6 5 2 2 3 6 1 8 5 9 6 8 8 9
11 12 14 16 17 17 17 17 17 13 10 10 8 2 4 4 2 7 7 2 3 4 3 4 4 3 1 2 2 2 6 5 4 2 2 2 8 7 5 6 9 14 11 9 6
10 11 14 16 17 18 19 18 17 13 10 9 8 1 2 2 1 5 6 1 7 2 2 4 4 2 3 2 0 2 3 4 2 2 2 7 12 15 7 7 10 13 11 8 3
8 10 13 15 17 18 20 19 15 11 10 9 3 2 1 0 3 4 2 2 7 3 3 4 2 3 6 3 5 8 2 3 9 11 5 3 14 14 11 11 13 12 12 6 3
8 10 12 15 17 18 21 19 7 7 3 2 2 4 3 3 3 5 3 1 2 5 5 2 4 5 6 6 1 3 4 4 5 5 5 8 19 17 14 8 10 10 7 4 3
7 9 13 15 17 20 11 5 5 3 7 2 0 1 1 6 1 5 3 4 1 2 3 4 8 3 1 2 1 2 3 6 6 1 10 3 18 18 21 6 9 8 2 4 6
7 8 12 14 16 19 3 4 2 2 2 1 1 2 1 2 2 6 7 2 1 2 2 6 3 2 3 4 3 3 4 5 8 6 6 9 18 15 14 4 5 5 1 4 3
6 8 11 14 17 4 4 2 3 3 1 0 0 2 2 4 1 5 4 1 4 4 5 5 3 2 2 3 4 3 2 3 6 8 5 9 8 7 5 2 5 7 4 8 8
6 6 9 17 3 3 2 3 3 2 5 2 1 1 1 2 2 2 2 2 3 3 3 4 2 0 1 1 2 4 2 3 8 5 2 6 6 6 4 5 5 4 6 4 7
6 4 7 6 3 2 4 4 3 1 4 1 1 1 1 4 2 1 2 2 4 4 5 2 3 1 1 1 1 8 7 7 4 2 3 4 4 10 6 3 4 2 5 7 6
5 2 9 3 1 2 4 4 2 7 7 1 1 0 1 2 2 2 2 4 1 3 2 2 1 1 2 2 3 8 8 2 2 3 4 5 5 8 4 3 3 3 7 7 8
10 8 3 4 3 6 5 2 6 4 3 4 2 1 1 2 2 3 2 5 1 5 3 1 1 1 1 2 2 6 6 6 8 6 7 2 1 12 8 4 3 3 8 7 8
17 12 2 3 5 6 2 6 3 3 4 1 1 2 3 2 2 0 1 1 3 3 4 3 6 3 1 2 2 3 6 7 5 3 6 6 8 8 5 7 3 4 7 11 14
17 3 2 2 4 3 5 2 9 4 2 6 3 4 4 1 2 0 1 4 2 3 6 4 3 2 4 1 4 4 4 4 5 1 2 5 8 10 6 4 6 11 10 13 14
4 4 0 4 5 3 5 5 4 2 4 2 5 3 4 3 3 3 4 2 4 2 1 4 3 1 2 2 4 3 2 3 4 3 6 7 7 8 7 6 7 11 11 13 17
3 3 1 3 3 5 4 7 3 1 0 4 3 2 3 5 6 3 4 2 3 3 1 3 4 1 3 5 7 2 2 2 4 5 6 5 10 8 3 1 4 11 12 13 18
3 3 2 2 3 1 5 6 4 4 0 2 1 4 6 5 4 3 5 2 6 6 5 2 4 2 7 1 4 4 7 5 7 6 4 4 13 7 5 6 6 14 14 14 18
3 3 2 4 5 4 1 2 1 5 6 5 4 2 2 5 1 3 3 3 6 4 6 6 1 4 8 4 3 4 5 4 5 3 6 6 12 2 8 13 15 13 14 17 18
3 4 2 2 0 5 6 4 5 6 2 4 3 3 3 1 2 4 3 2 3 2 4 3 3 8 8 5 3 4 6 8 7 4 4 12 12 23 18 11 14 10 12 14 17
5 5 7 7 6 4 9 10 9 7 1 4 2 6 6 3 2 4 3 2 1 6 2 3 4 3 6 12 7 11 11 9 14 10 8 7 10 17 18 12 11 6 8 16 17
6 5 1 3 11 14 10 10 11 5 9 5 5 9 8 7 7 7 7 5 6 5 6 2 2 2 7 4 5 10 13 17 19 15 16 23 29 24 19 2 5 5 9 14 16
2 2 4 10 7 11 10 9 14 12 7 6 14 7 9 10 4 0 2 3 7 8 6 6 5 4 8 6 7 8 9 15 6 6 12 9 16 2 5 4 4 5 8 11 13
Wind_Direction
355 353 351 349 352 349 348 347 349 346 343 343 338 340 334 328 328 27 37 312 318 315 320 270 218 213 228 248 5 23 65 217 263 28 165 10 10 334 284 228 331 276 1 166 343
351 350 349 346 348 346 342 344 345 339 336 339 335 333 331 330 21 63 351 342 322 318 331 356 53 158 12 100 351 86 129 220 16 75 319 321 353 324 337 332 297 302 319 93 42
345 347 346 345 343 342 340 342 340 333 332 333 331 330 333 328 64 1 353 342 324 314 245 275 292 249 96 86 40 350 191 15 80 118 47 299 320 328 318 292 239 298 299 333 7
343 342 343 343 341 339 339 337 336 332 329 330 330 329 329 281 88 331 357 335 329 331 92 256 310 360 118 98 63 60 53 66 330 32 354 328 310 324 243 246 270 281 280 297 329
341 339 339 340 338 336 335 334 333 330 327 328 329 333 356 52 12 321 348 346 348 355 29 29 45 2 93 112 354 176 337 337 320 328 246 294 289 267 274 277 272 248 220 274 270
336 335 334 335 334 332 329 330 329 325 323 322 329 332 31 70 293 348 345 359 7 19 20 32 29 267 74 69 97 281 288 269 251 247 273 3 286 85 274 301 298 298 264 250 254
328 333 330 331 331 328 325 326 322 317 314 310 324 309 60 155 35 5 6 289 1 21 17 346 342 86 147 114 326 284 337 323 258 272 248 108 296 209 284 345 337 322 307 290 259
318 327 326 329 329 326 321 319 315 304 301 296 318 344 136 187 306 5 348 59 360 344 348 297 344 8 86 139 167 344 78 14 349 280 228 86 270 274 284 321 304 296 291 260 239
312 316 324 328 329 323 319 314 304 284 280 289 347 83 31 282 19 312 42 1 307 277 278 287 316 69 18 40 25 11 271 331 334 331 311 52 286 275 310 297 287 291 287 258 169
306 311 321 329 328 324 321 311 281 319 253 266 280 50 27 322 320 317 308 296 313 330 356 18 39 64 19 47 215 300 330 302 270 322 344 283 276 295 297 272 278 281 239 134 222
294 307 324 330 327 327 342 355 18 4 39 88 122 273 30 303 269 335 347 335 233 11 64 12 65 68 190 73 128 232 252 274 259 250 342 252 286 293 298 269 254 274 231 278 270
304 314 318 325 329 326 343 54 96 225 322 323 251 131 186 21 322 348 351 82 25 79 15 27 98 182 274 258 247 299 297 306 299 357 303 294 293 293 290 240 189 166 344 264 253
292 304 322 325 324 359 71 57 334 4 191 69 304 36 303 12 72 317 10 328 72 60 28 138 156 230 268 336 5 303 220 296 256 316 312 345 319 328 302 103 78 21 20 26 24
267 298 323 324 357 314 41 347 325 320 69 267 145 348 28 29 316 309 316 127 59 107 66 87 208 47 311 71 66 303 161 301 294 16 294 74 283 300 284 328 95 63 64 29 357
244 281 321 350 287 27 313 324 322 342 14 1 296 314 239 89 10 352 292 355 122 140 101 208 176 71 186 141 82 252 307 279 262 242 36 338 64 268 302 291 304 346 32 9 333
214 355 336 359 308 318 314 335 37 41 263 305 353 209 110 69 40 280 322 45 51 103 73 125 83 147 195 270 209 286 310 354 113 90 26 240 136 281 259 235 287 349 353 317 321
163 116 20 335 317 325 320 50 32 146 352 289 177 250 29 38 98 46 28 19 101 78 349 126 183 160 88 14 33 27 36 339 360 12 222 176 271 245 263 260 53 349 323 318 320
146 132 94 108 323 328 350 64 160 254 218 241 67 51 140 55 326 151 150 87 6 82 89 132 321 177 19 93 166 28 121 148 237 282 273 326 237 256 212 122 125 10 328 321 335
123 70 160 9 28 341 77 120 205 213 190 147 49 74 315 355 190 111 118 174 146 65 147 138 256 67 67 79 106 273 59 187 91 2 36 263 287 298 187 39 0 350 325 330 322
108 103 167 347 345 74 75 226 246 159 157 138 177 139 189 225 185 165 192 226 158 122 136 220 24 128 142 89 26 113 142 45 13 2 299 288 279 242 288 339 331 322 324 330 333
88 141 127 26 16 72 189 222 239 231 160 199 211 182 219 186 179 214 216 298 149 138 347 150 105 287 104 202 172 22 355 18 118 143 188 293 266 226 241 310 294 322 334 335 331
159 184 348 136 109 221 172 199 151 173 323 199 309 185 190 165 157 227 209 212 132 142 164 241 138 217 220 213 122 164 196 144 124 259 224 166 268 260 256 7 344 335 344 334 329
162 99 347 283 181 194 233 132 165 162 208 168 229 183 104 183 163 179 134 359 124 141 183 195 340 6 342 346 4 199 197 145 122 88 219 137 262 258 299 332 341 338 333 334 330
144 142 160 267 64 175 132 192 200 208 172 178 167 119 113 107 15 204 153 222 140 105 136 130 111 170 198 201 138 201 193 182 138 141 212 229 278 293 307 322 320 316 335 328 339
193 214 169 184 207 193 172 165 172 169 144 167 336 210 167 172 49 231 144 109 53 169 151 116 179 192 244 257 237 248 236 204 207 194 180 256 226 270 284 290 290 284 335 339 344
194 157 233 148 155 175 196 191 164 166 152 208 205 196 170 199 188 198 142 191 193 181 167 180 254 37 293 272 224 259 230 220 232 235 255 259 278 279 278 312 310 312 345 343 341
199 108 145 165 154 176 188 168 198 144 236 176 192 153 193 215 127 56 148 142 153 154 170 154 124 82 269 344 302 298 227 187 194 215 204 194 231 307 289 287 311 311 357 338 336